Overview Statistics Trail Chart Weather Telemetry Raw packets
 

This is the latest recevied weather packets stored in our database for station/object 4S6DRJ-13. If no packets are shown the sender has not sent any weather packets the latest 10 day(s).

<< 437 438 439 440 441 442 443 >>
Time Temp. Humidity Pressure Rain* Wind** Luminosity Snow
1787793507 27.22° C 87% 1009.8 hPa 0 mm 0 m/s 73 W/m² -
1787793447 27.22° C 87% 1009.7 hPa 0 mm 0.89 m/s, 340° 72 W/m² -
1787793385 27.22° C 87% 1009.8 hPa 0 mm 1.34 m/s, 253° 68 W/m² -
1787793329 27.22° C 87% 1009.6 hPa 0 mm 0.45 m/s, 181° 65 W/m² -
1787793263 27.22° C 87% 1009.8 hPa 0 mm 0.89 m/s, 185° 60 W/m² -
1787793203 27.22° C 87% 1009.6 hPa 0 mm 0.89 m/s, 202° 60 W/m² -
1787793141 27.22° C 87% 1009.7 hPa 0 mm 0.45 m/s, 222° 61 W/m² -
1787793080 27.22° C 87% 1009.8 hPa 0 mm 0.89 m/s, 211° 64 W/m² -
1787793020 26.67° C 87% 1009.7 hPa 0 mm 0 m/s 63 W/m² -
1787792958 26.67° C 87% 1009.8 hPa 0 mm 0.45 m/s, 231° 61 W/m² -
1787792897 26.67° C 87% 1009.6 hPa 0 mm 0.45 m/s, 218° 58 W/m² -
1787792837 26.67° C 88% 1009.6 hPa 0 mm 1.34 m/s, 268° 56 W/m² -
1787792775 26.67° C 88% 1009.6 hPa 0 mm 1.34 m/s, 209° 53 W/m² -
1787792714 26.67° C 88% 1009.6 hPa 0 mm 0.45 m/s, 203° 52 W/m² -
1787792653 26.67° C 88% 1009.7 hPa 0 mm 0.89 m/s, 301° 50 W/m² -
1787792592 26.67° C 88% 1009.7 hPa 0 mm 0.89 m/s, 284° 48 W/m² -
1787792532 26.67° C 88% 1009.7 hPa 0 mm 0 m/s 45 W/m² -
1787792471 26.67° C 88% 1009.6 hPa 0 mm 0 m/s 42 W/m² -
1787792410 26.67° C 88% 1009.5 hPa 0 mm 0.45 m/s, 272° 40 W/m² -
1787792349 26.67° C 88% 1009.6 hPa 0 mm 0.45 m/s, 217° 39 W/m² -
1787792287 26.67° C 88% 1009.5 hPa 0 mm 0.45 m/s, 289° 36 W/m² -
1787792226 26.67° C 88% 1009.6 hPa 0 mm 0.89 m/s, 229° 34 W/m² -
1787792166 26.67° C 88% 1009.4 hPa 0 mm 0.45 m/s, 214° 31 W/m² -
1787792104 26.67° C 88% 1009.6 hPa 0 mm 1.79 m/s, 218° 28 W/m² -
1787792043 26.67° C 88% 1009.6 hPa 0 mm 0.89 m/s, 199° 26 W/m² -

* Rain latest hour (hover to see other rain measurements)
** Current wind speed in m/s (hover to see current wind gust speed)